Zurück zum Katalog

SL-12 R/B(2)

AktivHEO
NORAD 26855·ROCKET BODY·🇷🇺 Russia

Gestartet Jun 16, 2001 von Baikonur Cosmodrome

Loading…

Nächste Überflüge (nächste 24 Stunden)

TLE

AlterndSource: Space-Track

Epoche: Aug 31, 2026, 05:47 UTC

1 26855U 01025C   26243.24110485 -.00000081  00000-0  00000+0 0  9995
2 26855  15.2002  95.8247 4988976 283.5879 312.2461  1.84790175170162

Verfolge SL-12 R/B(2) in Echtzeit mit AllMySat

Download on the App Store